Regional Weather Roundup
Issued by NWS

Home | Current Version | Previous Version | Graphics & Text | Print | Product List | Glossary On
Versions: 1 2 3 4 5 6 7 8 9 10 11 12 13 14 15 16 17 18 19 20 21 22 23 24 25 26 27 28 29 30 31 32 33 34 35 36 37 38 39 40 41 42 43 44 45 46 47 48 49 50
000
ASUS43 KMKX 030621
RWRWI

WISCONSIN REGIONAL WEATHER ROUNDUP
NATIONAL WEATHER SERVICE MILWAUKEE/SULLIVAN WI
100 AM CDT WED JUN 03 2015

NOTE: "FAIR" INDICATES FEW OR NO CLOUDS BELOW 12,000 FEET WITH NO
SIGNIFICANT WEATHER AND/OR OBSTRUCTIONS TO VISIBILITY.

WIZ001-002-006>008-014>016-023>028-030700-
NORTHWEST WISCONSIN

CITY           SKY/WX    TMP DP  RH WIND       PRES   REMARKS
SUPERIOR ARPT  PTCLDY    44  40  86 E5        29.90F
6HR MIN TEMP:  43; 6HR MAX TEMP:  50;

ASHLAND        MOCLDY    60  49  66 S5        29.92F
6HR MIN TEMP:  59; 6HR MAX TEMP:  72;

HAYWARD        PTCLDY    62  49  62 S8        29.92F
6HR MIN TEMP:  62; 6HR MAX TEMP:  71;

SIREN          PTCLDY    63  51  67 S9        29.90F
6HR MIN TEMP:  62; 6HR MAX TEMP:  71;

CUMBERLAND     PTCLDY    59  50  72 SE9       29.93F
RICE LAKE      PTCLDY    61  50  66 SE8       29.96F
6HR MIN TEMP:  61; 6HR MAX TEMP:  72;

CHETEK         PTCLDY    61  51  69 E10       29.95F
6HR MIN TEMP:  61; 6HR MAX TEMP:  70;

LADYSMITH      PTCLDY    60  48  64 SE6       29.99F
6HR MIN TEMP:  60; 6HR MAX TEMP:  71;

EAU CLAIRE     PTCLDY    62  48  60 S6        29.96S
6HR MIN TEMP:  62; 6HR MAX TEMP:  72;

MENOMONIE      CLEAR     59  51  74 SE7       29.95F
6HR MIN TEMP:  59; 6HR MAX TEMP:  71;

NEW RICHMOND   CLEAR     61  50  69 SE8       29.93F
6HR MIN TEMP:  61; 6HR MAX TEMP:  71;

OSCEOLA        PTCLDY    63  52  66 S8        29.94S
6HR MIN TEMP:  63; 6HR MAX TEMP:  72;

$$

WIZ003>005-009-010-017-018-030700-
NORTH CENTRAL WISCONSIN

CITY           SKY/WX    TMP DP  RH WIND       PRES   REMARKS
MANITOWISH WTR MOCLDY    56  45  65 S7        29.99F
6HR MIN TEMP:  53; 6HR MAX TEMP:  68;

ARBOR VITAE    MOCLDY    58  44  58 S7        30.01S
6HR MIN TEMP:  55; 6HR MAX TEMP:  69;

WOODRUFF       MOCLDY    58  44  58 S7        30.01S
6HR MIN TEMP:  55; 6HR MAX TEMP:  69;

RHINELANDER    CLOUDY    57  40  52 S3        30.04S
6HR MIN TEMP:  57; 6HR MAX TEMP:  69;

EAGLE RIVER    CLOUDY    55  39  55 S3        30.02S
6HR MIN TEMP:  55; 6HR MAX TEMP:  68;

LAND O LAKES   MOCLDY    56  40  54 S6        30.02F
6HR MIN TEMP:  51; 6HR MAX TEMP:  71;

PHILLIPS       PTCLDY    59  44  56 S9        29.99S
6HR MIN TEMP:  59; 6HR MAX TEMP:  67;

TOMAHAWK       CLOUDY    55  43  65 CALM      30.03S
6HR MIN TEMP:  50; 6HR MAX TEMP:  66;

MEDFORD        MOCLDY    56  46  68 SE7       30.01F
6HR MIN TEMP:  55; 6HR MAX TEMP:  65;

MERRILL        MOCLDY   N/A N/A N/A CALM      30.04F
$$

WIZ029-030-035-036-043>047-030700-
CENTRAL WISCONSIN

CITY           SKY/WX    TMP DP  RH WIND       PRES   REMARKS
WAUSAU         PTCLDY    56  44  64 SE7       30.02F
6HR MIN TEMP:  56; 6HR MAX TEMP:  71;

MOSINEE        PTCLDY    52  45  76 SE6       30.04F
MARSHFIELD     PTCLDY    54  45  71 S5        30.01F
6HR MIN TEMP:  54; 6HR MAX TEMP:  69;

STEVENS POINT  PTCLDY    55  45  70 S5        30.04F
6HR MIN TEMP:  55; 6HR MAX TEMP:  70;

WAUPACA        PTCLDY    54  47  78 CALM      30.05F
6HR MIN TEMP:  54; 6HR MAX TEMP:  71;

WAUTOMA        PTCLDY    55  47  74 SE5       30.05F
6HR MIN TEMP:  55; 6HR MAX TEMP:  74;

WISC RAPIDS    CLEAR     56  46  69 S6        30.04F
6HR MIN TEMP:  55; 6HR MAX TEMP:  72;

CAMP DOUGLAS   PTCLDY    46  46 100 SE5       30.01F
6HR MIN TEMP:  46; 6HR MAX TEMP:  71;

$$

WIZ011>013-019>022-031-037>040-048>050-030700-
NORTHEAST WISCONSIN

CITY           SKY/WX    TMP DP  RH WIND       PRES   REMARKS
ANTIGO         MOCLDY    50  43  75 S7        30.05F
SHAWANO        PTCLDY    55  39  56 CALM      30.05F
6HR MIN TEMP:  54; 6HR MAX TEMP:  71;

OCONTO         CLEAR     49  44  83 SE6       30.06F
6HR MIN TEMP:  46; 6HR MAX TEMP:  65;

STURGEON BAY   CLEAR     48  37  66 S9        30.09F
6HR MIN TEMP:  45; 6HR MAX TEMP:  63;

GREEN BAY      PTCLDY    52  40  63 S3        30.07S
6HR MIN TEMP:  50; 6HR MAX TEMP:  67;

MANITOWOC      CLEAR     47  44  90 CALM      30.10S
6HR MIN TEMP:  47; 6HR MAX TEMP:  62;

APPLETON       PTCLDY    54  37  54 S8        30.07S
CLINTONVILLE   PTCLDY    46  43  87 CALM      30.05F
OSHKOSH        PTCLDY    51  42  71 S7        30.06S
6HR MIN TEMP:  48; 6HR MAX TEMP:  68;

$$

WIZ032>034-041-042-053>061-030700-
SOUTHWEST WISCONSIN

CITY           SKY/WX    TMP DP  RH WIND       PRES   REMARKS
LA CROSSE      PTCLDY    63  49  60 S8        29.98F
6HR MIN TEMP:  61; 6HR MAX TEMP:  74;

SPARTA         PTCLDY    49  45  85 CALM      30.01F
6HR MIN TEMP:  49; 6HR MAX TEMP:  72;

VIROQUA        PTCLDY    59  47  65 SE9       30.01F
6HR MIN TEMP:  59; 6HR MAX TEMP:  70;

BOSCOBEL       MOCLDY    53  50  89 CALM      30.02S
6HR MIN TEMP:  53; 6HR MAX TEMP:  73;

PRAIRIE DU CHI MOCLDY    56  49  76 E6        30.01S
6HR MIN TEMP:  56; 6HR MAX TEMP:  72;

PLATTEVILLE    MOCLDY    60  48  65 SE8       30.03S
6HR MIN TEMP:  60; 6HR MAX TEMP:  70;

$$

WIZ056-057-062-063-064-067-068-030700-
SOUTH CENTRAL WISCONSIN

CITY           SKY/WX    TMP DP  RH WIND       PRES   REMARKS
REEDSBURG      PTCLDY    54  47  77 CALM      30.03F
6HR MIN TEMP:  50; 6HR MAX TEMP:  69;

BARABOO/DELLS  PTCLDY    54  46  75 SE6       30.04F
6HR MIN TEMP:  53; 6HR MAX TEMP:  68;

LONE ROCK      MOCLDY    53  49  86 CALM      30.04S
6HR MIN TEMP:  53; 6HR MAX TEMP:  73;

MINERAL POINT  MOCLDY    59  46  63 SE5       30.04S
MADISON        MOCLDY    59  45  59 S8        30.05F
6HR MIN TEMP:  59; 6HR MAX TEMP:  71;

MIDDLETON      MOCLDY    60  45  57 S6        30.06S
6HR MIN TEMP:  56; 6HR MAX TEMP:  72;

WATERTOWN      PTCLDY    53  46  78 CALM      30.06F
6HR MIN TEMP:  52; 6HR MAX TEMP:  68;

MONROE         MOCLDY    55  46  71 SE7       30.05F
JANESVILLE     MOCLDY    57  46  67 SE7       30.07R
$$

WIZ051-052-058>065-066-070>072-030700-
SOUTHEAST WISCONSIN

CITY           SKY/WX    TMP DP  RH WIND       PRES   REMARKS
MILWAUKEE      MOCLDY    51  43  74 S6        30.10S
6HR MIN TEMP:  50; 6HR MAX TEMP:  59;

WAUKESHA       CLEAR     46  43  87 SE3       30.10S
MILWAUKEE/TIMM FAIR      50  41  71 CALM      30.10S
RACINE         CLEAR     50  42  74 S6        30.11S
6HR MIN TEMP:  50; 6HR MAX TEMP:  60;

BURLINGTON     CLEAR     46  43  91 CALM      30.09S
6HR MIN TEMP:  45; 6HR MAX TEMP:  65;

KENOSHA        CLEAR     50  44  80 S5        30.09F
6HR MIN TEMP:  50; 6HR MAX TEMP:  62;

FOND DU LAC    PTCLDY    50  44  80 SE6       30.07S
6HR MIN TEMP:  50; 6HR MAX TEMP:  67;

SHEBOYGAN      CLEAR     47  44  90 CALM      30.09S
6HR MIN TEMP:  46; 6HR MAX TEMP:  61;

WEST BEND      CLEAR     46  43  87 CALM      30.09S
JUNEAU         PTCLDY    51  44  76 SE5       30.08S
6HR MIN TEMP:  51; 6HR MAX TEMP:  68;

$$

LSZ147-162-030700-
LAKE SUPERIOR

STATION/POSITION TIME  TEMP    WIND        PRES    WAVE
                       AIR SEA DIR/SP/G            HT/PER
                 (UTC) (F)     (DEG/KT/KT) (MB)    (FT/S)
W MID LAKE BUOY  0550   45 37  160/ 10/ 10   N/A     1
DEVILS ISLAND    0600   45      40/  4/  5   N/A
PORT WING        0540   44     360/  1/  2   N/A
SAXON HARBOR     0500   65     200/  4/  7   N/A
$$

LMZ867-665-643>646-030700-
LAKE MICHIGAN

STATION/POSITION TIME  TEMP    WIND        PRES    WAVE
                       AIR SEA DIR/SP/G            HT/PER


USA.gov is the U.S. government's official web portal to all federal, state and local government web resources and services.